sat.trackr.live / text

‹ back to catalog

IRIDE-MS1-EAGLET 2-12

NORAD 68461 · 2026-067AX

PAYLOAD ACTIVE UNKNOWN

§ Identity

Operator
Country
IT
Launch date
2026-03-30
Launch site
AFWTR
Launch vehicle
Mass (kg)
RCS (m²)

External: N2YO · Heavens-Above · Gunter

§ Orbital elements

Epoch: 2026-05-25T03:44:27.086784Z

Period
94.87 min
Inclination
97.4535°
Eccentricity
0.0005271
Mean motion
15.17802600 rev/d
Perigee alt
508.9 km
Apogee alt
516.1 km
Semi-major
6,890.6 km
B*
3.3961e-4
RAAN
103.9238°
Arg perigee
127.3612°
Mean anomaly
232.8102°
Rev number
844

§ Raw data

IRIDE-MS1-EAGLET 2-121 68461U 26067AX  26145.15586906  .00006803  00000+0  33961-3 0  99952 68461  97.4535 103.9238 0005271 127.3612 232.8102 15.17802600  8447

JSON: /api/v1/satellites/68461 · /tle

For live sub-satellite position, see the globe view (requires WebGL).

§ Visibility from observer

Set your observer location to see the next 7 days of passes ≥ 10°. The values pass through the URL so the page stays shareable.

No JS? Fill the form by hand. The geolocation button needs JavaScript.